Regional Weather Roundup
Issued by NWS

Home | Current Version | Previous Version | Graphics & Text | Print | Product List | Glossary Off
Versions: 1 2 3 4 5 6 7 8 9 10 11 12 13 14 15 16 17 18 19 20 21 22 23 24 25 26 27 28 29 30 31 32 33 34 35 36 37 38 39 40 41 42 43 44 45 46 47 48 49

000
ASUS43 KDMX 281907
RWRIA

WEATHER ROUNDUP FOR IOWA
NATIONAL WEATHER SERVICE DES MOINES IA
100 PM CST FRI NOV 28 2014

NOTE: "FAIR" INDICATES FEW OR NO CLOUDS BELOW 12,000 FEET WITH NO
SIGNIFICANT WEATHER AND/OR OBSTRUCTIONS TO VISIBILITY.

* - THESE STATIONS ARE NOT NWS STATIONS...THUS NOT UNDER NWS
QUALITY CONTROL.  THEY ALSO DO NOT REPORT WEATHER SUCH
AS PRECIPITATION OR FOG.

IAZ001>003-012>014-020>022-031>034-043>046-282000-
   NORTHWEST IOWA

CITY           SKY/WX    TMP DP  RH WIND       PRES   REMARKS
CARROLL *      SUNNY     37  30  75 S10       29.77F WCI  30
CHEROKEE *     MOSUNNY   34  28  80 E9        29.75F WCI  26
DENISON *      SUNNY     41  32  70 S8        29.73F
LE MARS *      SUNNY     36  28  75 SE9       29.73F WCI  29
ORANGE CITY *  PTSUNNY   36  27  69 SE9       29.72F WCI  29
SHELDON *      SUNNY     30  27  86 SE9       29.72F WCI  22
SIOUX CITY     SUNNY     44  28  53 SE9       29.73F
SPENCER        MOSUNNY   29  23  78 SE10      29.76F WCI  20
STORM LAKE *   SUNNY     32  28  86 E8        29.75F WCI  25
$$

IAZ055>058-069>071-079>083-090>094-282000-
   SOUTHWEST IOWA

CITY           SKY/WX    TMP DP  RH WIND       PRES   REMARKS
ATLANTIC *     SUNNY     41  30  65 S12       29.77F
AUDUBON *      SUNNY     39  28  65 S9        29.78F WCI  33
CLARINDA *     SUNNY     46  32  57 S12       29.81F
COUNCIL BLFS * SUNNY     46  30  53 S8        29.75F
CRESTON *      SUNNY     41  32  70 S12       29.80F
HARLAN  *      SUNNY     43  32  65 S12       29.78F
LAMONI         MOSUNNY   45  31  58 S9        29.83F
RED OAK *      SUNNY     46  32  57 S10       29.78F
SHENANDOAH *   SUNNY     48  32  53 S13       29.79F
$$

IAZ047>049-059>061-072>074-084-282000-
   CENTRAL IOWA

CITY           SKY/WX    TMP DP  RH WIND       PRES   REMARKS
AMES           PTSUNNY   31  23  72 E7        29.83F WCI  24
ANKENY *       SUNNY     37  27  65 SE6       29.82F WCI  33
CHARITON *     SUNNY     43  30  61 S15       29.83F
DES MOINES     PTSUNNY   40  27  59 S9        29.82F WCI  34
GRINNELL*      MOSUNNY   30  25  80 E5        29.86F WCI  25
KNOXVILLE *    SUNNY     41  28  60 S14       29.82F
MARSHALLTOWN   MOSUNNY   28  23  81 SE10      29.85F WCI  19
PELLA *        PTSUNNY   41  30  65 S9        29.85F
PERRY *          N/A     37  30  75 SE9       29.81F WCI  31
$$

IAZ004>006-015-016-023>025-035-036-282000-
   NORTH CENTRAL IOWA

CITY           SKY/WX    TMP DP  RH WIND       PRES   REMARKS
ALGONA *       SUNNY     28  23  80 SE9       29.81F WCI  20
CLARION *      SUNNY     28  25  86 SE10      29.83F WCI  19
ESTHERVILLE    PTSUNNY   24  20  84 SE13      29.78F WCI  12
FORT DODGE *   MOSUNNY   30  21  69 E13       29.81F WCI  20
MASON CITY     CLOUDY    23  19  85 SE12      29.86F WCI  12
FOREST CITY *    N/A     27  21  80 SE12      29.82F WCI  16
IOWA FALLS *     N/A     28  21  74 SE9       29.85F HAZE    WCI  20
$$

IAZ007>011-017>019-026>030-037>042-050>054-066-282000-
   NORTHEAST IOWA

CITY           SKY/WX    TMP DP  RH WIND       PRES   REMARKS
CEDAR RAPIDS   PTSUNNY   29  23  78 SE8       29.91F WCI  21
CHARLES CITY * SUNNY     25  19  80 SE12      29.87F WCI  14
CLINTON *      CLOUDY    30  21  69 SE13      29.97F WCI  20
DECORAH *      SUNNY     25  18  74 SE8       29.90F WCI  16
DUBUQUE        PTSUNNY   26  21  81 S13       29.94F WCI  15
MONTICELLO *   SUNNY     28  23  80 SE13      29.93F WCI  18
OELWEIN *      SUNNY     28  23  80 SE13      29.89F WCI  18
WATERLOO       PTSUNNY   28  23  81 SE9       29.88F WCI  19
$$

IAZ064-065-067-068-078-282000-
   EAST CENTRAL IOWA

CITY           SKY/WX    TMP DP  RH WIND       PRES   REMARKS
DAVENPORT      PTSUNNY   31  23  72 S13       29.94  WCI  21
IOWA CITY      PTSUNNY   30  24  78 SE10      29.93F WCI  21
MT. PLEASANT * PTSUNNY   36  27  69 SE10      29.92F WCI  28
MUSCATINE *    SUNNY     32  25  74 SE10      29.94F WCI  24
QUAD CITIES    CLOUDY    33  24  69 S10G21    29.94F WCI  25
$$

IAZ062-063-075>077-085>089-095>099-282000-
   SOUTHEAST IOWA

CITY           SKY/WX    TMP DP  RH WIND       PRES   REMARKS
BURLINGTON     MOSUNNY   37  28  70 S17       29.93F WCI  27
FAIRFIELD *    SUNNY     37  27  65 S13       29.89F WCI  29
FORT MADISON * SUNNY     39  30  70 SE9       29.93F WCI  33
KEOKUK *       SUNNY     43  30  61 S14G21    29.92F
OSKALOOSA *      N/A     36  28  75 S12       29.87F WCI  27
CENTERVILLE *    N/A     45  30  57 S8        29.87F
OTTUMWA        PTSUNNY   37  27  67 S10       29.87F WCI  30
WASHINGTON *   SUNNY     32  30  93 SE13      29.90F WCI  22
$$

ABBREVIATIONS USED IN REMARKS
   TC - TEMPERATURES IN CELSIUS
  WCI - WIND CHILL INDEX
   HX - HEAT INDEX
  VSB - VISIBILITY
$$




USA.gov is the U.S. government's official web portal to all federal, state and local government web resources and services.